| time (UTC) | temp F | wind direction | speed MPH | gust MPH | rain 1hr in | rain 24hr in | rain mn in | humidity % | barometer mb |
| 20260510071146 | 103 | 123 | 0.0 | 0.0 | 0.00 | 0.00 | 0.00 | 100 | 1010.9 |
| 20260510070643 | 103 | 123 | 0.0 | 0.0 | 0.00 | 0.00 | 0.00 | 100 | 1010.9 |
| 20260510070412 | 103 | 123 | 0.0 | 0.0 | 0.00 | 0.00 | 0.00 | 100 | 1010.9 |
| 20260510065627 | 103 | 123 | 0.0 | 0.0 | 0.00 | 0.00 | 0.00 | 100 | 1010.8 |
| 20260510065121 | 103 | 123 | 0.0 | 4.0 | 0.00 | 0.00 | 0.00 | 100 | 1010.9 |
| 20260510064623 | 103 | 123 | 0.0 | 4.0 | 0.00 | 0.00 | 0.00 | 100 | 1010.9 |
| 20260510064101 | 103 | 109 | 0.0 | 0.0 | 0.00 | 0.00 | 0.00 | 100 | 1010.9 |
| 20260510063545 | 103 | 109 | 0.0 | 0.0 | 0.00 | 0.00 | 0.00 | 100 | 1011.0 |
| 20260510063021 | 103 | 109 | 0.0 | 0.0 | 0.00 | 0.00 | 0.00 | 100 | 1011.0 |
| 20260510062513 | 103 | 109 | 0.0 | 0.0 | 0.00 | 0.00 | 0.00 | 100 | 1011.0 |
| 20260510062244 | 103 | 109 | 0.0 | 0.0 | 0.00 | 0.00 | 0.00 | 100 | 1010.9 |
| 20260510061513 | 103 | 109 | 0.0 | 0.0 | 0.00 | 0.00 | 0.00 | 100 | 1010.9 |
| 20260510061013 | 103 | 109 | 0.0 | 0.0 | 0.00 | 0.00 | 0.00 | 100 | 1010.8 |
| 20260510060502 | 103 | 109 | 0.0 | 0.0 | 0.00 | 0.00 | 0.00 | 100 | 1010.9 |
| 20260510055956 | 103 | 109 | 0.0 | 0.0 | 0.00 | 0.00 | 0.00 | 100 | 1010.8 |
| 20260510055455 | 104 | 109 | 0.0 | 0.0 | 0.00 | 0.00 | 0.00 | 100 | 1010.8 |
| 20260510054955 | 104 | 109 | 0.0 | 5.0 | 0.00 | 0.00 | 0.00 | 100 | 1010.9 |
| 20260510054430 | 104 | 109 | 1.0 | 5.0 | 0.00 | 0.00 | 0.00 | 100 | 1010.8 |
| 20260510053909 | 104 | 135 | 0.0 | 0.0 | 0.00 | 0.00 | 0.00 | 100 | 1010.8 |
| 20260510053406 | 104 | 135 | 0.0 | 0.0 | 0.00 | 0.00 | 0.00 | 100 | 1010.8 |
| 20260510053401 | 104 | 135 | 0.0 | 0.0 | 0.00 | 0.00 | 0.00 | 100 | 1010.7 |
| 20260510052355 | 104 | 135 | 0.0 | 4.0 | 0.00 | 0.00 | 0.00 | 100 | 1010.8 |
| 20260510051849 | 105 | 135 | 0.0 | 4.0 | 0.00 | 0.00 | 0.00 | 100 | 1010.8 |
| 20260510051334 | 104 | 113 | 0.0 | 4.0 | 0.00 | 0.00 | 0.00 | 100 | 1010.8 |
| 20260510050833 | 104 | 104 | 0.0 | 3.0 | 0.00 | 0.00 | 0.00 | 100 | 1010.9 |
| 20260510050334 | 104 | 104 | 0.0 | 6.0 | 0.00 | 0.00 | 0.00 | 100 | 1010.8 |
| 20260510045832 | 104 | 104 | 3.0 | 6.0 | 0.00 | 0.00 | 0.00 | 100 | 1010.8 |
| 20260510045334 | 105 | 123 | 0.0 | 3.0 | 0.00 | 0.00 | 0.00 | 100 | 1010.7 |
| 20260510044826 | 105 | 123 | 0.0 | 3.0 | 0.00 | 0.00 | 0.00 | 100 | 1010.8 |
| 20260510044316 | 105 | 137 | 0.0 | 0.0 | 0.00 | 0.00 | 0.00 | 100 | 1010.7 |
| 20260510043807 | 105 | 137 | 0.0 | 0.0 | 0.00 | 0.00 | 0.00 | 100 | 1010.6 |
| 20260510043303 | 105 | 137 | 0.0 | 0.0 | 0.00 | 0.00 | 0.00 | 100 | 1010.6 |
| 20260510043028 | 105 | 137 | 0.0 | 0.0 | 0.00 | 0.00 | 0.00 | 100 | 1010.6 |
| 20260510042258 | 104 | 137 | 0.0 | 0.0 | 0.00 | 0.00 | 0.00 | 100 | 1010.6 |
| 20260510041754 | 104 | 137 | 0.0 | 0.0 | 0.00 | 0.00 | 0.00 | 100 | 1010.5 |
| 20260510041222 | 105 | 137 | 0.0 | 0.0 | 0.00 | 0.00 | 0.00 | 100 | 1010.5 |
| 20260510040715 | 105 | 137 | 0.0 | 0.0 | 0.00 | 0.00 | 0.00 | 100 | 1010.5 |
| 20260510040213 | 105 | 137 | 0.0 | 0.0 | 0.00 | 0.00 | 0.00 | 100 | 1010.4 |
| 20260510035708 | 105 | 137 | 0.0 | 0.0 | 0.00 | 0.00 | 0.00 | 100 | 1010.4 |
| 20260510035202 | 105 | 137 | 0.0 | 0.0 | 0.00 | 0.00 | 0.00 | 100 | 1010.4 |
| 20260510034657 | 105 | 137 | 0.0 | 0.0 | 0.00 | 0.00 | 0.00 | 100 | 1010.3 |
| 20260510034156 | 106 | 137 | 0.0 | 0.0 | 0.00 | 0.00 | 0.00 | 100 | 1010.3 |
| 20260510033927 | 105 | 137 | 0.0 | 0.0 | 0.00 | 0.00 | 0.00 | 100 | 1010.3 |
| 20260510033151 | 106 | 137 | 0.0 | 0.0 | 0.00 | 0.00 | 0.00 | 100 | 1010.3 |
| 20260510032646 | 106 | 137 | 0.0 | 0.0 | 0.00 | 0.00 | 0.00 | 100 | 1010.2 |
| 20260510032412 | 106 | 137 | 0.0 | 0.0 | 0.00 | 0.00 | 0.00 | 100 | 1010.2 |
| 20260510031848 | 106 | 137 | 0.0 | 0.0 | 0.00 | 0.00 | 0.00 | 100 | 1010.0 |
| 20260510031116 | 106 | 137 | 0.0 | 0.0 | 0.00 | 0.00 | 0.00 | 100 | 1010.0 |
| 20260510030616 | 106 | 137 | 0.0 | 0.0 | 0.00 | 0.00 | 0.00 | 100 | 1009.9 |
| 20260510030110 | 106 | 137 | 0.0 | 0.0 | 0.00 | 0.00 | 0.00 | 100 | 1009.7 |
| 20260510025817 | 106 | 137 | 0.0 | 0.0 | 0.00 | 0.00 | 0.00 | 100 | 1009.7 |
| 20260510025044 | 106 | 137 | 0.0 | 0.0 | 0.00 | 0.00 | 0.00 | 100 | 1009.6 |
| 20260510024542 | 106 | 137 | 0.0 | 4.0 | 0.00 | 0.00 | 0.00 | 100 | 1009.6 |
| 20260510024031 | 106 | 137 | 2.0 | 4.0 | 0.00 | 0.00 | 0.00 | 100 | 1009.5 |
| 20260510023512 | 106 | 142 | 0.0 | 3.0 | 0.00 | 0.00 | 0.00 | 100 | 1009.4 |
| 20260510023002 | 107 | 142 | 0.0 | 4.0 | 0.00 | 0.00 | 0.00 | 100 | 1009.3 |
| 20260510022502 | 107 | 144 | 0.0 | 4.0 | 0.00 | 0.00 | 0.00 | 100 | 1009.2 |
| 20260510022002 | 107 | 127 | 0.0 | 0.0 | 0.00 | 0.00 | 0.00 | 100 | 1009.2 |
| 20260510021501 | 107 | 127 | 0.0 | 0.0 | 0.00 | 0.00 | 0.00 | 100 | 1009.1 |
| 20260510020956 | 107 | 127 | 0.0 | 0.0 | 0.00 | 0.00 | 0.00 | 100 | 1009.0 |
| 20260510020455 | 106 | 127 | 0.0 | 0.0 | 0.00 | 0.00 | 0.00 | 100 | 1008.9 |
| 20260510020219 | 107 | 127 | 0.0 | 0.0 | 0.00 | 0.00 | 0.00 | 100 | 1008.8 |
| 20260510015443 | 107 | 127 | 0.0 | 0.0 | 0.00 | 0.00 | 0.00 | 100 | 1008.7 |
| 20260510014939 | 107 | 127 | 0.0 | 0.0 | 0.00 | 0.00 | 0.00 | 100 | 1008.7 |
| 20260510014710 | 107 | 127 | 0.0 | 0.0 | 0.00 | 0.00 | 0.00 | 100 | 1008.8 |
| 20260510014544 | 107 | 127 | 0.0 | 0.0 | 0.00 | 0.00 | 0.00 | 100 | 1008.7 |
| 20260510013429 | 107 | 127 | 0.0 | 0.0 | 0.00 | 0.00 | 0.00 | 100 | 1008.6 |
| 20260510013149 | 107 | 127 | 0.0 | 0.0 | 0.00 | 0.00 | 0.00 | 100 | 1008.6 |
| 20260510012403 | 108 | 127 | 0.0 | 0.0 | 0.00 | 0.00 | 0.00 | 100 | 1008.5 |
| 20260510011857 | 108 | 127 | 0.0 | 3.0 | 0.00 | 0.00 | 0.00 | 100 | 1008.4 |
| 20260510011340 | 108 | 127 | 0.0 | 6.0 | 0.00 | 0.00 | 0.00 | 100 | 1008.4 |
| 20260510010835 | 108 | 112 | 0.0 | 7.0 | 0.00 | 0.00 | 0.00 | 100 | 1008.4 |
| 20260510010603 | 108 | 112 | 3.0 | 7.0 | 0.00 | 0.00 | 0.00 | 100 | 1008.4 |
| 20260510005829 | 108 | 130 | 0.0 | 3.0 | 0.00 | 0.00 | 0.00 | 100 | 1008.4 |
| 20260510005306 | 108 | 130 | 0.0 | 2.0 | 0.00 | 0.00 | 0.00 | 100 | 1008.3 |
| 20260510004745 | 108 | 130 | 0.0 | 9.0 | 0.00 | 0.00 | 0.00 | 100 | 1008.3 |
| 20260510004231 | 109 | 130 | 2.0 | 9.0 | 0.00 | 0.00 | 0.00 | 100 | 1008.2 |
| 20260510003727 | 109 | 149 | 0.0 | 6.0 | 0.00 | 0.00 | 0.00 | 100 | 1008.2 |
| 20260510003218 | 109 | 139 | 2.0 | 6.0 | 0.00 | 0.00 | 0.00 | 100 | 1008.1 |
| 20260510002704 | 109 | 116 | 0.0 | 4.0 | 0.00 | 0.00 | 0.00 | 100 | 1008.1 |
| 20260510002158 | 109 | 125 | 0.0 | 4.0 | 0.00 | 0.00 | 0.00 | 100 | 1008.0 |
| 20260510001655 | 110 | 127 | 1.0 | 6.0 | 0.00 | 0.00 | 0.00 | 100 | 1008.0 |
| 20260510001151 | 110 | 171 | 2.0 | 6.0 | 0.00 | 0.00 | 0.00 | 100 | 1008.0 |
| 20260510000917 | 110 | 120 | 0.0 | 6.0 | 0.00 | 0.00 | 0.00 | 100 | 1007.9 |
| 20260510000146 | 110 | 122 | 0.0 | 7.0 | 0.00 | 0.00 | 0.00 | 100 | 1007.9 |
| 20260509235643 | 110 | 115 | 1.0 | 7.0 | 0.00 | 0.00 | 0.00 | 100 | 1007.8 |
| 20260509235141 | 110 | 116 | 0.0 | 0.0 | 0.00 | 0.00 | 0.00 | 100 | 1007.7 |
| 20260509234622 | 110 | 116 | 0.0 | 3.0 | 0.00 | 0.00 | 0.00 | 100 | 1007.7 |
| 20260509234101 | 110 | 116 | 0.0 | 3.0 | 0.00 | 0.00 | 0.00 | 100 | 1007.7 |
| 20260509234051 | 110 | 120 | 0.0 | 5.0 | 0.00 | 0.00 | 0.00 | 100 | 1007.6 |
| 20260509233048 | 110 | 139 | 2.0 | 6.0 | 0.00 | 0.00 | 0.00 | 100 | 1007.6 |
| 20260509232543 | 110 | 136 | 3.0 | 6.0 | 0.00 | 0.00 | 0.00 | 100 | 1007.7 |
| 20260509232044 | 110 | 144 | 4.0 | 6.0 | 0.00 | 0.00 | 0.00 | 100 | 1007.6 |
| 20260509231545 | 110 | 137 | 0.0 | 5.0 | 0.00 | 0.00 | 0.00 | 100 | 1007.5 |
| 20260509231044 | 110 | 132 | 3.0 | 5.0 | 0.00 | 0.00 | 0.00 | 100 | 1007.5 |
| 20260509230815 | 110 | 125 | 0.0 | 5.0 | 0.00 | 0.00 | 0.00 | 100 | 1007.6 |
| 20260509230043 | 111 | 53 | 0.0 | 5.0 | 0.00 | 0.00 | 0.00 | 100 | 1007.6 |
| 20260509225543 | 111 | 161 | 0.0 | 3.0 | 0.00 | 0.00 | 0.00 | 100 | 1007.5 |
| 20260509225039 | 110 | 22 | 0.0 | 3.0 | 0.00 | 0.00 | 0.00 | 100 | 1007.6 |
| 20260509224542 | 110 | 125 | 1.0 | 6.0 | 0.00 | 0.00 | 0.00 | 100 | 1007.5 |
| 20260509224537 | 110 | 37 | 0.0 | 4.0 | 0.00 | 0.00 | 0.00 | 100 | 1007.6 |
| 20260509223537 | 110 | 113 | 3.0 | 6.0 | 0.00 | 0.00 | 0.00 | 100 | 1007.5 |
| 20260509223307 | 110 | 78 | 0.0 | 5.0 | 0.00 | 0.00 | 0.00 | 100 | 1007.6 |
| 20260509222533 | 110 | 78 | 1.0 | 7.0 | 0.00 | 0.00 | 0.00 | 100 | 1007.6 |
| 20260509222035 | 110 | 139 | 3.0 | 7.0 | 0.00 | 0.00 | 0.00 | 100 | 1007.6 |
| 20260509221532 | 110 | 132 | 5.0 | 9.0 | 0.00 | 0.00 | 0.00 | 100 | 1007.6 |
| 20260509221033 | 111 | 102 | 4.0 | 10.0 | 0.00 | 0.00 | 0.00 | 100 | 1007.5 |
| 20260509220531 | 110 | 147 | 3.0 | 10.0 | 0.00 | 0.00 | 0.00 | 100 | 1007.6 |
| 20260509220031 | 110 | 153 | 1.0 | 7.0 | 0.00 | 0.00 | 0.00 | 100 | 1007.6 |
| 20260509215531 | 110 | 132 | 5.0 | 9.0 | 0.00 | 0.00 | 0.00 | 100 | 1007.6 |
| 20260509215258 | 110 | 163 | 4.0 | 9.0 | 0.00 | 0.00 | 0.00 | 100 | 1007.6 |
| 20260509214757 | 110 | 139 | 4.0 | 9.0 | 0.00 | 0.00 | 0.00 | 100 | 1007.6 |
| 20260509214027 | 111 | 108 | 0.0 | 7.0 | 0.00 | 0.00 | 0.00 | 100 | 1007.7 |
| 20260509213525 | 111 | 142 | 0.0 | 4.0 | 0.00 | 0.00 | 0.00 | 100 | 1007.8 |
| 20260509213256 | 112 | 130 | 1.0 | 8.0 | 0.00 | 0.00 | 0.00 | 100 | 1007.8 |
| 20260509212522 | 112 | 36 | 3.0 | 8.0 | 0.00 | 0.00 | 0.00 | 100 | 1007.8 |
| 20260509212019 | 111 | 23 | 2.0 | 6.0 | 0.00 | 0.00 | 0.00 | 100 | 1007.9 |
| 20260509211510 | 111 | 102 | 2.0 | 6.0 | 0.00 | 0.00 | 0.00 | 100 | 1007.9 |
| 20260509211003 | 111 | 135 | 2.0 | 5.0 | 0.00 | 0.00 | 0.00 | 100 | 1008.1 |
| 20260509210459 | 111 | 132 | 1.0 | 5.0 | 0.00 | 0.00 | 0.00 | 100 | 1008.2 |
| 20260509205949 | 111 | 161 | 2.0 | 5.0 | 0.00 | 0.00 | 0.00 | 100 | 1008.2 |
| 20260509205445 | 112 | 358 | 0.0 | 6.0 | 0.00 | 0.00 | 0.00 | 100 | 1008.2 |
| 20260509204944 | 112 | 330 | 2.0 | 6.0 | 0.00 | 0.00 | 0.00 | 100 | 1008.2 |
| 20260509204443 | 111 | 57 | 2.0 | 7.0 | 0.00 | 0.00 | 0.00 | 100 | 1008.3 |
| 20260509204214 | 110 | 149 | 5.0 | 8.0 | 0.00 | 0.00 | 0.00 | 100 | 1008.4 |
| 20260509203443 | 111 | 126 | 2.0 | 8.0 | 0.00 | 0.00 | 0.00 | 100 | 1008.5 |
| 20260509203214 | 111 | 168 | 4.0 | 10.0 | 0.00 | 0.00 | 0.00 | 100 | 1008.5 |
| 20260509202443 | 111 | 87 | 5.0 | 10.0 | 0.00 | 0.00 | 0.00 | 100 | 1008.5 |
| 20260509201943 | 111 | 99 | 4.0 | 9.0 | 0.00 | 0.00 | 0.00 | 100 | 1008.5 |
| 20260509201441 | 111 | 97 | 3.0 | 10.0 | 0.00 | 0.00 | 0.00 | 100 | 1008.8 |
| 20260509200936 | 110 | 140 | 5.0 | 10.0 | 0.00 | 0.00 | 0.00 | 100 | 1009.0 |
| 20260509200437 | 109 | 167 | 4.0 | 14.0 | 0.00 | 0.00 | 0.00 | 100 | 1009.2 |
| 20260509195936 | 109 | 143 | 5.0 | 14.0 | 0.00 | 0.00 | 0.00 | 100 | 1009.2 |
| 20260509195436 | 110 | 101 | 6.0 | 13.0 | 0.00 | 0.00 | 0.00 | 100 | 1009.1 |
| 20260509194936 | 111 | 122 | 0.0 | 9.0 | 0.00 | 0.00 | 0.00 | 100 | 1009.2 |
| 20260509194436 | 112 | 22 | 0.0 | 6.0 | 0.00 | 0.00 | 0.00 | 100 | 1009.0 |
| 20260509193930 | 112 | 22 | 0.0 | 13.0 | 0.00 | 0.00 | 0.00 | 100 | 1009.0 |
| 20260509193422 | 113 | 30 | 2.0 | 13.0 | 0.00 | 0.00 | 0.00 | 100 | 1008.9 |
| 20260509192920 | 113 | 264 | 1.0 | 5.0 | 0.00 | 0.00 | 0.00 | 100 | 1008.9 |
| 20260509192416 | 113 | 4 | 4.0 | 6.0 | 0.00 | 0.00 | 0.00 | 100 | 1009.0 |
| 20260509191916 | 113 | 202 | 4.0 | 6.0 | 0.00 | 0.00 | 0.00 | 100 | 1009.1 |
| 20260509191415 | 112 | 225 | 0.0 | 7.0 | 0.00 | 0.00 | 0.00 | 100 | 1009.0 |
| 20260509191404 | 112 | 307 | 1.0 | 7.0 | 0.00 | 0.00 | 0.00 | 100 | 1009.1 |
| 20260509190621 | 112 | 219 | 1.0 | 6.0 | 0.00 | 0.00 | 0.00 | 100 | 1009.1 |
| 20260509185849 | 112 | 36 | 2.0 | 8.0 | 0.00 | 0.00 | 0.00 | 100 | 1009.2 |
| 20260509185615 | 112 | 223 | 3.0 | 8.0 | 0.00 | 0.00 | 0.00 | 100 | 1009.3 |
| 20260509184845 | 112 | 209 | 1.0 | 7.0 | 0.00 | 0.00 | 0.00 | 100 | 1009.4 |
| 20260509184615 | 111 | 32 | 3.0 | 6.0 | 0.00 | 0.00 | 0.00 | 100 | 1009.5 |
| 20260509183342 | 111 | 216 | 1.0 | 9.0 | 0.00 | 0.00 | 0.00 | 100 | 1009.7 |
| 20260509183109 | 111 | 198 | 4.0 | 9.0 | 0.00 | 0.00 | 0.00 | 100 | 1009.7 |
| 20260509182333 | 111 | 18 | 1.0 | 8.0 | 0.00 | 0.00 | 0.00 | 100 | 1009.7 |
| 20260509181829 | 111 | 22 | 6.0 | 9.0 | 0.00 | 0.00 | 0.00 | 100 | 1009.9 |
| 20260509181823 | 110 | 288 | 1.0 | 9.0 | 0.00 | 0.00 | 0.00 | 100 | 1010.2 |
| 20260509181051 | 110 | 168 | 0.0 | 8.0 | 0.00 | 0.00 | 0.00 | 100 | 1010.2 |
| 20260509180320 | 110 | 203 | 4.0 | 6.0 | 0.00 | 0.00 | 0.00 | 100 | 1010.2 |
| 20260509175817 | 109 | 330 | 0.0 | 6.0 | 0.00 | 0.00 | 0.00 | 100 | 1010.2 |
| 20260509175308 | 109 | 243 | 1.0 | 6.0 | 0.00 | 0.00 | 0.00 | 100 | 1010.3 |
| 20260509174807 | 108 | 181 | 2.0 | 7.0 | 0.00 | 0.00 | 0.00 | 100 | 1010.3 |
| 20260509174307 | 109 | 177 | 0.0 | 9.0 | 0.00 | 0.00 | 0.00 | 100 | 1010.3 |
| 20260509173756 | 109 | 230 | 0.0 | 9.0 | 0.00 | 0.00 | 0.00 | 100 | 1010.4 |
| 20260509173256 | 109 | 180 | 4.0 | 7.0 | 0.00 | 0.00 | 0.00 | 100 | 1010.7 |
| 20260509173028 | 109 | 343 | 0.0 | 6.0 | 0.00 | 0.00 | 0.00 | 100 | 1010.9 |
| 20260509172253 | 108 | 1 | 1.0 | 6.0 | 0.00 | 0.00 | 0.00 | 100 | 1010.9 |
| 20260509171752 | 108 | 322 | 1.0 | 6.0 | 0.00 | 0.00 | 0.00 | 100 | 1010.9 |
| 20260509171248 | 108 | 355 | 0.0 | 6.0 | 0.00 | 0.00 | 0.00 | 100 | 1011.0 |
| 20260509170747 | 108 | 358 | 0.0 | 6.0 | 0.00 | 0.00 | 0.00 | 100 | 1010.9 |
| 20260509170244 | 107 | 358 | 3.0 | 7.0 | 0.00 | 0.00 | 0.00 | 100 | 1010.8 |
| 20260509165745 | 107 | 194 | 1.0 | 9.0 | 0.00 | 0.00 | 0.00 | 100 | 1010.7 |
| 20260509165244 | 107 | 215 | 4.0 | 9.0 | 0.00 | 0.00 | 0.00 | 100 | 1010.8 |
| 20260509165017 | 107 | 175 | 3.0 | 8.0 | 0.00 | 0.00 | 0.00 | 100 | 1010.8 |
| 20260509164346 | 107 | 164 | 2.0 | 6.0 | 0.00 | 0.00 | 0.00 | 100 | 1010.8 |
| 20260509163237 | 107 | 192 | 3.0 | 8.0 | 0.00 | 0.00 | 0.00 | 100 | 1010.8 |
| 20260509162723 | 107 | 32 | 0.0 | 7.0 | 0.00 | 0.00 | 0.00 | 100 | 1010.8 |
| 20260509162219 | 106 | 240 | 3.0 | 7.0 | 0.00 | 0.00 | 0.00 | 100 | 1010.8 |
| 20260509161708 | 106 | 9 | 4.0 | 7.0 | 0.00 | 0.00 | 0.00 | 100 | 1010.9 |
| 20260509161209 | 104 | 220 | 0.0 | 5.0 | 0.00 | 0.00 | 0.00 | 100 | 1010.9 |
| 20260509160709 | 105 | 191 | 0.0 | 5.0 | 0.00 | 0.00 | 0.00 | 100 | 1010.8 |
| 20260509160202 | 104 | 108 | 0.0 | 6.0 | 0.00 | 0.00 | 0.00 | 100 | 1010.8 |
| 20260509155935 | 103 | 143 | 0.0 | 7.0 | 0.00 | 0.00 | 0.00 | 100 | 1010.9 |
| 20260509155201 | 103 | 144 | 4.0 | 9.0 | 0.00 | 0.00 | 0.00 | 100 | 1011.0 |
| 20260509154702 | 104 | 168 | 5.0 | 10.0 | 0.00 | 0.00 | 0.00 | 100 | 1011.0 |
| 20260509154202 | 103 | 158 | 0.0 | 13.0 | 0.00 | 0.00 | 0.00 | 100 | 1011.0 |
| 20260509153702 | 103 | 191 | 4.0 | 13.0 | 0.00 | 0.00 | 0.00 | 100 | 1011.0 |
| 20260509153202 | 103 | 170 | 3.0 | 10.0 | 0.00 | 0.00 | 0.00 | 100 | 1010.8 |
| 20260509152932 | 102 | 144 | 4.0 | 8.0 | 0.00 | 0.00 | 0.00 | 100 | 1010.7 |
| 20260509152201 | 103 | 146 | 2.0 | 11.0 | 0.00 | 0.00 | 0.00 | 100 | 1010.6 |
| 20260509151659 | 102 | 178 | 5.0 | 11.0 | 0.00 | 0.00 | 0.00 | 100 | 1010.5 |
| 20260509151429 | 102 | 232 | 6.0 | 10.0 | 0.00 | 0.00 | 0.00 | 100 | 1010.5 |
| 20260509150658 | 102 | 142 | 5.0 | 8.0 | 0.00 | 0.00 | 0.00 | 100 | 1010.5 |
| 20260509150153 | 102 | 135 | 3.0 | 8.0 | 0.00 | 0.00 | 0.00 | 100 | 1010.4 |
| 20260509145653 | 102 | 112 | 3.0 | 8.0 | 0.00 | 0.00 | 0.00 | 100 | 1010.5 |
| 20260509145424 | 101 | 180 | 4.0 | 10.0 | 0.00 | 0.00 | 0.00 | 100 | 1010.4 |
| 20260509144652 | 101 | 147 | 6.0 | 10.0 | 0.00 | 0.00 | 0.00 | 100 | 1010.4 |
| 20260509144425 | 101 | 140 | 4.0 | 8.0 | 0.00 | 0.00 | 0.00 | 1 | 1010.4 |
| 20260509143651 | 101 | 217 | 4.0 | 7.0 | 0.00 | 0.00 | 0.00 | 100 | 1010.4 |
| 20260509143155 | 101 | 140 | 2.0 | 9.0 | 0.00 | 0.00 | 0.00 | 100 | 1010.2 |
| 20260509143150 | 102 | 205 | 3.0 | 6.0 | 0.00 | 0.00 | 0.00 | 100 | 1010.4 |
| 20260509142146 | 101 | 184 | 5.0 | 9.0 | 0.00 | 0.00 | 0.00 | 100 | 1010.0 |
| 20260509141646 | 101 | 125 | 3.0 | 7.0 | 0.00 | 0.00 | 0.00 | 100 | 1009.9 |
| 20260509141143 | 101 | 165 | 4.0 | 7.0 | 0.00 | 0.00 | 0.00 | 100 | 1009.7 |
| 20260509140644 | 101 | 142 | 1.0 | 6.0 | 0.00 | 0.00 | 0.00 | 100 | 1009.5 |
| 20260509140143 | 102 | 135 | 0.0 | 6.0 | 0.00 | 0.00 | 0.00 | 3 | 1009.5 |
| 20260509135640 | 102 | 140 | 0.0 | 6.0 | 0.00 | 0.00 | 0.00 | 7 | 1009.4 |
| 20260509135408 | 101 | 143 | 2.0 | 6.0 | 0.00 | 0.00 | 0.00 | 26 | 1009.4 |
| 20260509134637 | 101 | 126 | 0.0 | 5.0 | 0.00 | 0.00 | 0.00 | 100 | 1009.5 |
| 20260509134132 | 101 | 153 | 0.0 | 5.0 | 0.00 | 0.00 | 0.00 | 100 | 1009.6 |
| 20260509133848 | 101 | 153 | 0.0 | 5.0 | 0.00 | 0.00 | 0.00 | 100 | 1009.7 |
| 20260509133600 | 101 | 167 | 0.0 | 2.0 | 0.00 | 0.00 | 0.00 | 100 | 1009.6 |
| 20260509132831 | 101 | 167 | 0.0 | 5.0 | 0.00 | 0.00 | 0.00 | 100 | 1009.7 |
| 20260509132058 | 100 | 167 | 2.0 | 5.0 | 0.00 | 0.00 | 0.00 | 100 | 1010.2 |
| 20260509131545 | 100 | 151 | 0.0 | 0.0 | 0.00 | 0.00 | 0.00 | 100 | 1010.0 |
| 20260509131041 | 100 | 151 | 0.0 | 0.0 | 0.00 | 0.00 | 0.00 | 100 | 1010.4 |
| 20260509130537 | 100 | 151 | 0.0 | 0.0 | 0.00 | 0.00 | 0.00 | 100 | 1010.7 |
| 20260509130031 | 100 | 151 | 0.0 | 0.0 | 0.00 | 0.00 | 0.00 | 100 | 1010.7 |
| 20260509125754 | 100 | 151 | 0.0 | 0.0 | 0.00 | 0.00 | 0.00 | 100 | 1010.7 |
| 20260509125017 | 100 | 151 | 0.0 | 0.0 | 0.00 | 0.00 | 0.00 | 100 | 1010.5 |
| 20260509124512 | 101 | 151 | 0.0 | 0.0 | 0.00 | 0.00 | 0.00 | 100 | 1010.4 |
| 20260509124000 | 100 | 151 | 0.0 | 0.0 | 0.00 | 0.00 | 0.00 | 100 | 1010.4 |
| 20260509123452 | 101 | 151 | 0.0 | 0.0 | 0.00 | 0.00 | 0.00 | 100 | 1010.3 |
| 20260509122945 | 101 | 151 | 0.0 | 0.0 | 0.00 | 0.00 | 0.00 | 100 | 1010.3 |
| 20260509122445 | 101 | 151 | 0.0 | 0.0 | 0.00 | 0.00 | 0.00 | 100 | 1009.9 |
| 20260509121930 | 101 | 151 | 0.0 | 0.0 | 0.00 | 0.00 | 0.00 | 100 | 1009.9 |
| 20260509121415 | 101 | 151 | 0.0 | 0.0 | 0.00 | 0.00 | 0.00 | 100 | 1010.0 |
| 20260509120907 | 100 | 151 | 0.0 | 0.0 | 0.00 | 0.00 | 0.00 | 100 | 1010.0 |
| 20260509120402 | 101 | 151 | 0.0 | 0.0 | 0.00 | 0.00 | 0.00 | 100 | 1010.0 |
| 20260509115859 | 100 | 151 | 0.0 | 0.0 | 0.00 | 0.00 | 0.00 | 100 | 1009.9 |
| 20260509115357 | 101 | 151 | 0.0 | 0.0 | 0.00 | 0.00 | 0.00 | 100 | 1010.2 |
| 20260509114849 | 100 | 151 | 0.0 | 0.0 | 0.00 | 0.00 | 0.00 | 100 | 1010.4 |
| 20260509114345 | 101 | 151 | 0.0 | 0.0 | 0.00 | 0.00 | 0.00 | 100 | 1010.5 |
| 20260509113839 | 101 | 151 | 0.0 | 0.0 | 0.00 | 0.00 | 0.00 | 100 | 1010.6 |
| 20260509113338 | 101 | 151 | 0.0 | 0.0 | 0.00 | 0.00 | 0.00 | 100 | 1010.8 |
| 20260509112839 | 101 | 151 | 0.0 | 0.0 | 0.00 | 0.00 | 0.00 | 100 | 1010.9 |
| 20260509112559 | 101 | 151 | 0.0 | 0.0 | 0.00 | 0.00 | 0.00 | 100 | 1011.1 |
| 20260509111828 | 101 | 151 | 0.0 | 0.0 | 0.00 | 0.00 | 0.00 | 100 | 1011.2 |
| 20260509111322 | 101 | 151 | 0.0 | 0.0 | 0.00 | 0.00 | 0.00 | 100 | 1011.2 |
| 20260509111036 | 101 | 151 | 0.0 | 0.0 | 0.00 | 0.00 | 0.00 | 100 | 1011.2 |
| 20260509110238 | 101 | 151 | 0.0 | 0.0 | 0.00 | 0.00 | 0.00 | 100 | 1011.3 |
| 20260509105736 | 101 | 151 | 0.0 | 0.0 | 0.00 | 0.00 | 0.00 | 100 | 1011.3 |
| 20260509105233 | 101 | 151 | 0.0 | 0.0 | 0.00 | 0.00 | 0.00 | 100 | 1011.3 |
| 20260509104728 | 101 | 151 | 0.0 | 0.0 | 0.00 | 0.00 | 0.00 | 100 | 1011.4 |
| 20260509104216 | 101 | 151 | 0.0 | 0.0 | 0.00 | 0.00 | 0.00 | 100 | 1011.4 |
| 20260509103652 | 100 | 151 | 0.0 | 0.0 | 0.00 | 0.00 | 0.00 | 100 | 1011.2 |
| 20260509103152 | 100 | 151 | 0.0 | 0.0 | 0.00 | 0.00 | 0.00 | 100 | 1011.4 |
| 20260509102648 | 100 | 151 | 0.0 | 0.0 | 0.00 | 0.00 | 0.00 | 100 | 1011.4 |
| 20260509102145 | 101 | 151 | 0.0 | 0.0 | 0.00 | 0.00 | 0.00 | 100 | 1011.3 |
| 20260509101908 | 100 | 151 | 0.0 | 0.0 | 0.00 | 0.00 | 0.00 | 100 | 1011.3 |
| 20260509101131 | 101 | 151 | 0.0 | 0.0 | 0.00 | 0.00 | 0.00 | 100 | 1011.1 |
| 20260509100626 | 100 | 151 | 0.0 | 0.0 | 0.00 | 0.00 | 0.00 | 100 | 1010.9 |
| 20260509100122 | 100 | 151 | 0.0 | 0.0 | 0.00 | 0.00 | 0.00 | 100 | 1010.7 |
| 20260509095614 | 101 | 151 | 0.0 | 0.0 | 0.00 | 0.00 | 0.00 | 100 | 1010.5 |
| 20260509095106 | 100 | 151 | 0.0 | 0.0 | 0.00 | 0.00 | 0.00 | 100 | 1010.2 |
| 20260509094603 | 100 | 151 | 0.0 | 0.0 | 0.00 | 0.00 | 0.00 | 100 | 1009.9 |
| 20260509094055 | 100 | 151 | 0.0 | 0.0 | 0.00 | 0.00 | 0.00 | 100 | 1009.7 |
| 20260509093558 | 100 | 151 | 0.0 | 0.0 | 0.00 | 0.00 | 0.00 | 100 | 1009.7 |
| 20260509093050 | 100 | 151 | 0.0 | 0.0 | 0.00 | 0.00 | 0.00 | 100 | 1009.7 |
| 20260509092537 | 100 | 151 | 0.0 | 0.0 | 0.00 | 0.00 | 0.00 | 100 | 1009.6 |
| 20260509092014 | 100 | 151 | 0.0 | 0.0 | 0.00 | 0.00 | 0.00 | 100 | 1009.6 |
| 20260509091507 | 100 | 151 | 0.0 | 0.0 | 0.00 | 0.00 | 0.00 | 100 | 1009.6 |
| 20260509091000 | 100 | 151 | 0.0 | 0.0 | 0.00 | 0.00 | 0.00 | 100 | 1009.6 |
| 20260509090500 | 100 | 151 | 0.0 | 0.0 | 0.00 | 0.00 | 0.00 | 100 | 1009.7 |
| 20260509085957 | 100 | 151 | 0.0 | 0.0 | 0.00 | 0.00 | 0.00 | 100 | 1009.7 |
| 20260509085443 | 100 | 151 | 0.0 | 0.0 | 0.00 | 0.00 | 0.00 | 100 | 1009.7 |
| 20260509084939 | 100 | 151 | 0.0 | 0.0 | 0.00 | 0.00 | 0.00 | 100 | 1009.7 |
| 20260509084434 | 100 | 151 | 0.0 | 0.0 | 0.00 | 0.00 | 0.00 | 100 | 1009.7 |
| 20260509083929 | 100 | 151 | 0.0 | 0.0 | 0.00 | 0.00 | 0.00 | 100 | 1009.7 |
| 20260509083411 | 100 | 151 | 0.0 | 0.0 | 0.00 | 0.00 | 0.00 | 100 | 1010.0 |
| 20260509082859 | 100 | 151 | 0.0 | 0.0 | 0.00 | 0.00 | 0.00 | 100 | 1010.2 |
| 20260509082353 | 100 | 151 | 0.0 | 0.0 | 0.00 | 0.00 | 0.00 | 100 | 1010.2 |
| 20260509081853 | 100 | 151 | 0.0 | 0.0 | 0.00 | 0.00 | 0.00 | 100 | 1010.4 |
| 20260509081622 | 100 | 151 | 0.0 | 0.0 | 0.00 | 0.00 | 0.00 | 100 | 1010.3 |
| 20260509080838 | 100 | 151 | 0.0 | 0.0 | 0.00 | 0.00 | 0.00 | 100 | 1010.3 |
| 20260509080604 | 100 | 151 | 0.0 | 0.0 | 0.00 | 0.00 | 0.00 | 100 | 1010.0 |
| 20260509075829 | 100 | 151 | 0.0 | 0.0 | 0.00 | 0.00 | 0.00 | 100 | 1010.2 |
| 20260509075314 | 100 | 151 | 0.0 | 0.0 | 0.00 | 0.00 | 0.00 | 100 | 1010.2 |
| 20260509074814 | 100 | 151 | 0.0 | 0.0 | 0.00 | 0.00 | 0.00 | 100 | 1010.2 |
| 20260509074303 | 100 | 151 | 0.0 | 0.0 | 0.00 | 0.00 | 0.00 | 82 | 1010.2 |
| 20260509073758 | 100 | 151 | 0.0 | 0.0 | 0.00 | 0.00 | 0.00 | 69 | 1010.2 |
| 20260509073254 | 100 | 151 | 0.0 | 0.0 | 0.00 | 0.00 | 0.00 | 58 | 1010.2 |
| 20260509072753 | 100 | 151 | 0.0 | 0.0 | 0.00 | 0.00 | 0.00 | 45 | 1010.4 |
| 20260509072250 | 100 | 151 | 0.0 | 0.0 | 0.00 | 0.00 | 0.00 | 34 | 1010.4 |
| 20260509072018 | 100 | 151 | 0.0 | 0.0 | 0.00 | 0.00 | 0.00 | 31 | 1010.5 |
| 20260509071240 | 100 | 151 | 0.0 | 0.0 | 0.00 | 0.00 | 0.00 | 29 | 1010.6 |